TimeADT,TemperatureF,Dew PointF,Humidity,Sea Level PressureIn,VisibilityMPH,Wind Direction,Wind SpeedMPH,Gust SpeedMPH,PrecipitationIn,Events,Conditions,WindDirDegrees,DateUTC
12:00 AM,54.5,52.5,93,30.02,-9999.0,SSE,20.7,-,0.12,,Unknown,150,2013-10-17 03:00:00
1:00 AM,54.7,52.5,92,29.98,-9999.0,SE,20.7,-,0.05,,Unknown,140,2013-10-17 04:00:00
2:00 AM,54.9,53.1,94,29.96,-9999.0,SSE,18.4,-,0.15,,Unknown,150,2013-10-17 05:00:00
3:00 AM,55,53,92,29.92,,South,10.4,,,,,170,2013-10-17 06:00:00
3:00 AM,54.7,53.2,95,29.92,-9999.0,South,10.4,18.4,0.57,,Unknown,170,2013-10-17 06:00:00
4:00 AM,56.1,54.1,93,29.87,-9999.0,SSE,19.6,-,0.09,,Unknown,160,2013-10-17 07:00:00
5:00 AM,56.8,54.9,93,29.83,-9999.0,SE,10.4,-,N/A,,Unknown,140,2013-10-17 08:00:00
6:00 AM,58.1,56.5,94,29.82,-9999.0,SSE,10.4,-,N/A,,Unknown,150,2013-10-17 09:00:00
7:00 AM,60.3,58.6,94,29.81,-9999.0,South,15.0,-,N/A,,Unknown,180,2013-10-17 10:00:00
8:00 AM,61.0,59.5,95,29.80,-9999.0,South,13.8,-,N/A,,Unknown,180,2013-10-17 11:00:00
9:00 AM,62,60,92,29.80,,South,12.7,,,,,180,2013-10-17 12:00:00
9:00 AM,61.7,60.3,95,29.80,-9999.0,South,12.7,-,N/A,,Unknown,180,2013-10-17 12:00:00
10:00 AM,63.9,62.2,94,29.79,-9999.0,South,9.2,-,N/A,,Unknown,190,2013-10-17 13:00:00
11:00 AM,66.0,61.5,85,29.77,-9999.0,SSW,9.2,-,N/A,,Unknown,200,2013-10-17 14:00:00
12:00 PM,65.7,62.1,88,29.75,-9999.0,SSW,6.9,-,N/A,,Unknown,210,2013-10-17 15:00:00
1:00 PM,67.5,62.8,85,29.73,-9999.0,SSW,6.9,-,N/A,,Unknown,210,2013-10-17 16:00:00
2:00 PM,68.2,62.6,82,29.72,-9999.0,SW,8.1,-,N/A,,Unknown,220,2013-10-17 17:00:00
3:00 PM,68,63,79,29.70,,SSW,8.1,,,,,200,2013-10-17 18:00:00
3:00 PM,68.2,63.0,83,29.70,-9999.0,SSW,8.1,-,N/A,,Unknown,200,2013-10-17 18:00:00
4:00 PM,68.5,62.1,80,29.69,-9999.0,SSW,8.1,-,N/A,,Unknown,200,2013-10-17 19:00:00
5:00 PM,67.5,62.4,84,29.68,-9999.0,SSW,5.8,-,N/A,,Unknown,200,2013-10-17 20:00:00
6:00 PM,65.3,60.8,85,29.67,-9999.0,SSW,3.5,-,N/A,,Unknown,210,2013-10-17 21:00:00
7:00 PM,63.3,58.5,84,29.68,-9999.0,West,9.2,-,N/A,,Unknown,280,2013-10-17 22:00:00
8:00 PM,60.8,55.2,82,29.68,-9999.0,West,8.1,-,N/A,,Unknown,280,2013-10-17 23:00:00
9:00 PM,59,54,80,29.70,,WNW,6.9,,,,,300,2013-10-18 00:00:00
9:00 PM,58.8,54.5,86,29.70,-9999.0,WNW,6.9,-,N/A,,Unknown,300,2013-10-18 00:00:00
10:00 PM,58.3,54.3,87,29.71,-9999.0,WNW,11.5,-,N/A,,Unknown,290,2013-10-18 01:00:00
11:00 PM,57.0,53.4,88,29.71,-9999.0,WSW,4.6,-,N/A,,Unknown,250,2013-10-18 02:00:00